Cloud_Cover
5 5 5 5 4 1 0 5 2 0 21 74 68 100 100 92 94 100 100 100 100 100 100 100 100 100 100 100 100 100 100 100 100 100 100 100 100 100 100 100 100 100 100 91
5 5 5 5 5 5 8 8 3 1 66 16 16 39 93 100 100 100 100 100 100 100 100 100 100 100 100 100 100 100 100 100 100 100 100 100 100 100 100 100 100 100 100 100
49 7 5 5 5 5 5 14 14 10 13 48 86 21 71 87 100 100 100 100 100 100 100 100 100 100 100 100 100 100 100 100 100 100 100 100 100 100 100 100 100 100 100 97
80 16 5 5 5 5 39 15 40 10 64 60 55 11 45 96 97 80 100 100 100 100 100 100 100 100 100 100 100 100 100 100 100 100 100 100 100 100 100 100 72 50 86 94
84 58 24 11 19 22 27 71 75 91 76 85 16 5 37 57 100 88 100 100 100 100 100 100 100 100 100 100 100 100 100 100 100 100 100 100 100 100 100 87 54 25 66 66
100 26 62 82 81 22 98 70 36 46 44 23 5 4 0 42 98 100 100 100 100 100 100 100 100 100 100 100 100 100 100 100 100 100 100 100 100 99 100 31 7 28 48 76
95 99 88 100 69 60 99 92 68 98 80 82 5 4 0 42 76 87 100 100 100 100 100 100 100 100 100 100 100 100 100 100 100 100 100 100 61 35 80 45 65 62 75 97
99 96 100 100 100 100 91 100 61 82 94 48 4 5 4 27 32 100 100 100 74 100 100 92 100 100 100 100 100 100 100 83 97 88 98 89 83 91 53 26 58 77 92 100
100 100 100 100 100 100 70 97 100 96 80 77 5 5 5 5 100 51 100 100 100 42 100 36 100 100 100 93 100 100 100 100 100 100 100 100 99 99 100 100 100 100 100 100
100 100 100 100 100 98 82 100 100 100 100 32 5 96 6 5 33 100 100 100 92 59 100 98 99 100 97 90 100 100 100 100 100 100 100 90 90 48 93 100 75 100 100 100
100 100 100 100 100 15 61 100 100 97 96 70 21 5 25 62 50 86 100 100 75 98 100 99 99 95 98 100 100 100 100 100 100 100 100 100 100 59 99 100 100 100 100 100
100 100 100 100 65 5 80 100 100 100 100 99 57 9 5 5 8 21 100 57 48 100 100 87 100 100 99 100 100 100 100 84 100 100 100 100 100 100 100 100 100 100 100 100
100 100 99 6 4 4 84 100 100 100 100 83 92 17 5 3 52 79 100 100 20 90 86 97 100 100 59 100 100 100 100 100 99 100 100 100 100 100 100 100 100 100 100 100
100 97 5 4 4 4 97 98 94 100 100 99 68 5 4 5 6 62 79 100 56 10 81 99 100 100 58 100 91 100 100 100 100 100 100 100 100 100 100 100 100 100 100 100
99 25 5 5 12 38 87 100 97 94 80 100 89 62 5 5 5 10 57 77 100 100 90 93 98 86 84 72 59 99 100 100 100 100 100 100 100 100 100 96 95 100 100 100
80 5 5 75 100 99 100 100 94 99 98 100 91 12 59 28 5 5 9 20 75 100 92 76 98 35 99 99 100 100 100 100 100 100 100 100 96 99 100 100 97 99 90 82
95 11 92 81 99 100 100 71 96 90 100 100 98 100 100 100 100 87 42 72 92 74 92 42 73 87 31 75 100 100 100 100 100 100 100 100 100 100 100 88 93 78 89 98
28 66 100 100 100 100 100 99 100 100 100 100 100 76 98 100 100 93 58 86 72 95 81 87 74 87 99 100 93 92 92 100 100 100 100 100 100 90 97 90 89 98 98 100
100 100 100 100 100 100 100 100 100 100 100 100 100 86 99 88 94 100 76 97 93 70 100 86 42 100 99 98 89 99 91 81 71 100 100 100 100 99 99 100 100 100 100 100
100 100 100 100 100 100 100 100 100 100 100 83 100 67 85 72 100 100 98 55 87 89 78 100 100 100 100 100 100 100 84 61 51 99 100 100 100 100 99 97 100 100 100 100
100 100 100 100 100 100 100 100 100 98 92 100 100 78 81 77 100 93 76 70 54 92 78 98 100 100 100 100 100 100 84 63 70 80 99 100 100 100 100 100 100 100 100 100
100 100 100 100 100 100 96 100 100 100 54 91 100 99 99 90 91 88 100 87 85 88 87 96 100 100 100 100 100 100 89 93 96 91 99 99 100 100 100 100 100 100 100 100
100 100 100 100 100 94 90 100 100 91 59 80 79 94 86 67 100 100 96 99 96 63 100 98 100 100 100 99 100 95 94 100 100 96 96 100 97 93 97 100 100 100 100 100
100 100 100 98 92 94 100 100 31 17 41 82 100 72 100 100 100 100 98 96 86 100 98 99 100 100 100 100 100 100 100 100 100 100 100 100 100 100 100 100 100 100 100 100
100 100 86 94 98 100 100 85 36 100 28 99 99 89 80 97 97 94 98 100 100 100 100 100 100 100 100 100 100 99 99 100 100 100 100 100 100 100 100 100 100 93 87 58
86 53 85 86 97 100 99 96 97 99 100 61 41 78 99 98 100 98 100 100 100 100 100 100 100 100 95 98 91 94 100 100 100 100 100 100 100 100 100 100 100 100 98 87
63 96 77 100 94 92 100 100 95 100 75 84 68 94 97 73 81 80 100 100 100 100 100 100 99 86 89 92 90 94 100 100 100 100 93 97 100 100 99 100 100 99 61 10